Temperature
-0 -0 0 0 0 0 0 1 0 0 1 1 1 1 1 1 1 1 1 1 1 1 1 1 1 1 1 1 1 1 1 1 1 1 1 1 1 1 1 1 1 1 1
-1 -1 -0 -0 -0 -0 -0 -0 -0 -0 0 0 0 0 0 0 0 0 0 0 -0 0 0 0 0 0 0 0 0 0 0 0 0 0 0 0 0 0 0 1 1 1 1
-1 -1 -1 -1 -1 -1 -1 -1 -1 -1 -1 -1 -0 -0 -0 -0 -0 -0 -0 -0 -1 -1 -1 -0 -0 -0 -0 -1 -1 -0 -0 -1 -0 -0 -0 -0 -0 -0 -0 -0 -0 -0 -0
-2 -2 -2 -2 -1 -1 -1 -1 -1 -1 -1 -1 -1 -1 -1 -1 -1 -1 -1 -1 -1 -1 -1 -1 -1 -1 -1 -1 -1 -1 -1 -1 -1 -1 -1 -1 -1 -1 -1 -1 -1 -1 -1
-2 -2 -2 -2 -2 -2 -2 -2 -2 -2 -2 -2 -2 -2 -2 -2 -2 -2 -2 -2 -2 -2 -2 -2 -2 -2 -2 -2 -2 -2 -2 -2 -2 -2 -2 -2 -2 -2 -1 -1 -2 -1 -1
-3 -3 -3 -3 -3 -3 -3 -3 -3 -3 -3 -3 -3 -2 -2 -2 -2 -3 -3 -3 -3 -3 -3 -3 -3 -2 -2 -3 -3 -3 -3 -3 -3 -3 -3 -2 -2 -2 -2 -2 -3 -2 -2
-3 -3 -3 -3 -3 -3 -4 -3 -3 -3 -3 -3 -3 -3 -3 -3 -3 -3 -3 -4 -3 -3 -3 -3 -3 -3 -3 -3 -3 -3 -3 -3 -3 -3 -3 -3 -3 -3 -3 -3 -3 -3 -3
-4 -4 -4 -4 -4 -4 -4 -4 -4 -4 -4 -4 -4 -4 -4 -4 -4 -4 -4 -4 -4 -4 -4 -4 -4 -4 -4 -4 -4 -4 -4 -4 -4 -4 -4 -4 -4 -4 -4 -4 -4 -4 -4
-5 -5 -5 -5 -5 -5 -5 -5 -5 -5 -5 -5 -5 -5 -5 -4 -4 -5 -5 -5 -5 -5 -5 -5 -5 -5 -5 -5 -5 -5 -4 -4 -5 -5 -5 -5 -4 -4 -5 -5 -5 -5 -4
-6 -6 -6 -6 -6 -6 -6 -6 -6 -6 -6 -5 -5 -5 -5 -5 -5 -5 -6 -6 -5 -5 -5 -5 -5 -5 -5 -6 -6 -5 -5 -5 -5 -5 -5 -5 -5 -5 -5 -5 -5 -5 -5
-7 -7 -7 -7 -7 -6 -6 -6 -6 -6 -6 -6 -6 -6 -6 -6 -6 -6 -6 -6 -6 -6 -6 -6 -6 -6 -6 -6 -6 -6 -6 -6 -6 -6 -6 -6 -6 -6 -6 -6 -6 -6 -6
-7 -7 -7 -7 -7 -7 -7 -7 -7 -7 -7 -7 -7 -7 -7 -7 -7 -7 -7 -7 -7 -7 -6 -6 -6 -7 -7 -7 -7 -7 -7 -7 -7 -7 -7 -7 -7 -7 -6 -6 -7 -7 -7
-8 -8 -8 -8 -8 -8 -8 -8 -8 -8 -8 -8 -8 -8 -8 -7 -7 -7 -8 -8 -8 -8 -7 -7 -7 -7 -7 -7 -7 -7 -8 -8 -8 -8 -8 -7 -7 -7 -7 -7 -7 -7 -7
-9 -9 -9 -9 -9 -9 -9 -9 -9 -9 -9 -9 -9 -9 -8 -8 -8 -8 -8 -8 -8 -8 -8 -8 -8 -8 -8 -8 -8 -8 -8 -8 -8 -8 -8 -8 -8 -8 -8 -8 -8 -8 -8
-9 -9 -9 -10 -9 -9 -9 -10 -9 -9 -9 -9 -9 -9 -9 -9 -9 -9 -9 -9 -9 -9 -9 -9 -9 -9 -9 -9 -9 -9 -9 -9 -9 -9 -9 -9 -9 -9 -9 -9 -9 -9 -9
-10 -10 -10 -10 -10 -10 -10 -10 -10 -10 -10 -10 -10 -10 -10 -10 -10 -10 -10 -10 -9 -9 -9 -9 -9 -9 -9 -10 -10 -10 -9 -9 -9 -9 -9 -9 -9 -9 -9 -9 -9 -9 -9
-11 -11 -11 -11 -11 -11 -11 -11 -11 -11 -11 -11 -11 -10 -10 -10 -10 -10 -10 -10 -10 -10 -10 -10 -10 -10 -10 -10 -10 -10 -10 -10 -10 -10 -10 -10 -10 -10 -10 -10 -10 -10 -10
-12 -12 -11 -11 -11 -11 -11 -12 -12 -11 -11 -11 -11 -11 -11 -11 -11 -11 -11 -11 -11 -11 -10 -11 -11 -11 -11 -11 -11 -11 -11 -11 -11 -11 -11 -10 -10 -10 -10 -10 -10 -10 -10
-12 -12 -12 -12 -12 -12 -12 -12 -12 -12 -12 -12 -12 -12 -12 -12 -12 -12 -12 -11 -11 -11 -11 -11 -11 -11 -11 -11 -11 -11 -11 -11 -11 -11 -11 -11 -11 -11 -11 -11 -11 -11 -11
-13 -13 -13 -13 -13 -13 -12 -13 -13 -13 -13 -13 -13 -12 -12 -12 -12 -12 -12 -12 -12 -12 -12 -12 -12 -12 -12 -12 -12 -12 -12 -12 -12 -12 -12 -12 -12 -12 -11 -11 -11 -11 -11
-13 -13 -13 -13 -13 -13 -13 -13 -13 -13 -13 -13 -13 -13 -13 -13 -13 -13 -13 -13 -13 -13 -12 -12 -12 -12 -12 -12 -12 -12 -12 -12 -12 -12 -12 -12 -12 -12 -12 -12 -12 -12 -11
-14 -14 -14 -14 -14 -13 -13 -14 -14 -14 -14 -14 -14 -13 -13 -13 -13 -13 -13 -13 -13 -13 -13 -13 -13 -13 -13 -13 -13 -13 -13 -13 -13 -13 -13 -13 -13 -13 -13 -12 -12 -12 -12
-14 -14 -14 -14 -14 -14 -14 -14 -14 -14 -14 -14 -14 -14 -14 -14 -14 -14 -14 -14 -14 -13 -13 -13 -13 -13 -13 -13 -13 -13 -13 -13 -13 -13 -13 -13 -13 -13 -13 -13 -13 -12 -12
-14 -14 -14 -14 -14 -14 -14 -14 -15 -15 -15 -15 -15 -14 -14 -14 -14 -14 -14 -14 -14 -14 -14 -14 -13 -13 -13 -13 -13 -13 -13 -13 -13 -13 -13 -13 -13 -13 -13 -13 -13 -13 -13
-15 -15 -14 -15 -15 -15 -15 -15 -15 -15 -15 -15 -15 -15 -15 -15 -15 -15 -15 -14 -14 -14 -14 -14 -14 -14 -14 -14 -14 -14 -14 -14 -14 -14 -14 -14 -14 -14 -14 -14 -13 -13 -13
-15 -15 -15 -15 -15 -15 -15 -15 -15 -15 -15 -15 -15 -15 -15 -15 -15 -15 -15 -15 -15 -14 -14 -14 -14 -14 -14 -14 -14 -14 -14 -14 -14 -14 -14 -14 -14 -14 -14 -14 -14 -14 -14
Wind_Speed
1 1 1 1 1 1 1 1 1 1 2 2 2 2 2 1 1 1 0 0 0 1 1 1 1 1 1 1 1 1 1 1 3 3 2 2 2 1 1 2 3 3 4
1 1 1 1 1 1 1 1 1 1 2 2 2 2 2 1 1 1 1 1 2 2 2 2 2 2 2 1 1 1 2 2 2 4 3 2 2 2 1 2 2 3 3
1 1 1 1 1 1 1 1 1 1 1 1 2 2 2 2 1 1 1 2 2 2 2 2 2 2 2 2 2 2 2 2 2 3 3 2 2 2 1 2 2 2 4
1 1 1 1 1 1 1 1 1 1 1 2 2 2 2 2 2 2 2 2 2 2 2 2 2 2 2 2 2 2 2 2 2 2 3 2 2 2 1 1 2 2 3
1 1 2 2 1 1 1 1 1 1 1 1 1 2 2 2 2 2 2 2 2 2 2 3 3 4 4 4 3 3 2 2 2 3 3 3 3 2 2 2 3 2 3
1 2 2 1 1 1 1 1 1 1 1 1 2 2 2 2 3 4 3 2 3 3 3 3 3 4 5 6 6 5 5 4 4 4 4 4 4 3 2 2 2 2 3
2 2 2 1 2 2 2 1 1 2 1 2 2 2 2 3 4 4 5 3 3 3 3 3 3 3 3 3 4 5 5 6 6 5 5 6 5 4 3 3 3 3 4
2 2 1 1 2 1 1 2 2 2 2 2 3 3 2 3 5 5 5 3 3 3 3 4 4 3 3 3 3 3 3 4 5 5 5 5 4 4 4 4 4 4 4
2 2 2 2 2 2 2 2 2 2 2 2 2 2 3 3 5 5 4 2 2 3 3 3 4 4 6 6 3 3 4 3 4 5 6 6 6 7 5 2 3 3 4
3 2 2 2 2 2 3 2 2 2 2 2 3 3 3 3 5 5 4 2 2 3 3 3 5 5 7 7 4 3 4 4 3 3 3 4 4 5 6 4 4 4 3
2 2 2 2 2 3 2 2 2 2 2 2 2 3 2 3 4 5 5 2 3 3 3 3 3 6 7 7 6 4 6 5 3 3 3 2 2 2 2 3 3 4 4
2 2 2 2 2 2 2 2 2 2 2 2 2 2 2 3 3 4 5 5 4 3 3 3 3 6 7 7 5 5 6 4 2 2 3 3 3 3 2 3 3 4 4
2 2 2 2 2 2 2 2 2 2 2 2 2 2 2 2 2 4 5 5 6 3 3 5 5 6 5 4 4 5 4 2 2 3 4 3 3 2 2 2 2 3 4
2 2 2 2 2 2 2 2 2 2 2 2 2 2 2 2 2 2 2 3 3 3 2 4 5 5 4 4 3 3 2 2 3 3 3 3 2 2 3 3 3 3 3
2 3 3 2 2 1 2 2 2 2 3 3 3 3 3 3 4 5 4 3 2 3 2 2 2 1 2 1 1 1 1 2 3 2 3 3 3 4 4 3 3 3 4
3 3 2 2 2 1 1 2 3 3 5 6 6 5 4 5 6 6 6 6 5 5 3 2 2 2 2 2 2 2 2 2 3 3 3 3 4 4 4 3 3 3 4
3 3 3 2 2 2 2 2 2 3 5 5 5 5 5 5 6 6 6 6 5 4 2 2 2 2 2 2 2 2 2 2 2 3 3 3 3 4 4 4 4 4 4
3 4 4 2 2 2 2 2 2 2 3 3 4 5 5 5 5 5 5 3 2 1 1 1 2 2 2 2 2 2 2 2 2 2 3 3 3 3 4 4 4 4 4
3 2 2 2 2 2 2 2 2 3 3 3 2 3 5 5 5 4 3 1 1 2 2 2 2 2 2 2 2 2 2 2 2 2 3 3 3 3 4 4 4 7 6
3 5 4 3 2 2 2 2 2 2 3 3 3 3 3 3 2 2 1 1 1 2 2 2 2 2 2 2 2 2 2 2 2 3 3 3 3 3 4 4 5 5 5
2 3 5 4 2 3 3 3 3 3 3 3 3 4 5 3 2 2 2 1 1 2 2 2 2 2 2 1 2 2 3 3 3 3 3 3 3 4 4 4 5 5 5
2 2 3 3 2 2 3 2 3 3 3 3 3 4 6 3 2 2 2 2 2 1 1 2 2 2 2 2 2 3 3 3 3 3 3 4 4 4 4 4 4 4 4
2 2 3 2 2 4 3 2 2 3 3 3 3 3 3 3 3 3 3 2 2 2 2 2 2 2 3 3 4 4 4 4 4 4 4 4 4 4 4 4 5 5 5
2 2 2 2 2 2 2 2 3 3 3 3 3 3 3 3 3 4 3 3 2 2 3 3 3 4 5 5 5 5 6 7 7 6 6 5 5 5 5 5 6 6 6
1 2 2 2 2 2 3 3 3 3 3 4 4 4 4 4 4 4 3 3 3 3 4 4 4 5 6 7 8 8 10 11 10 8 7 6 6 6 6 6 5 5 5
1 1 2 2 2 2 3 3 3 3 4 4 4 4 4 4 4 4 4 3 3 3 4 5 6 7 8 9 10 11 12 12 11 11 8 6 5 5 5 5 6 6 6
Wind_Direction
264 254 238 246 260 257 234 229 185 175 175 178 188 190 186 186 191 206 214 195 239 296 281 239 252 237 221 228 227 226 234 227 254 285 301 303 300 284 301 301 290 271 270
253 251 240 244 240 232 247 244 217 195 198 194 195 192 197 194 198 192 231 237 225 237 254 250 259 253 237 241 230 234 235 236 238 266 284 286 296 275 278 302 300 286 285
251 248 245 255 243 239 250 237 236 207 208 210 203 206 207 206 219 224 230 244 239 240 236 241 251 238 250 253 246 244 255 266 255 249 270 286 297 290 293 298 293 302 291
248 248 245 252 251 256 268 255 223 215 218 224 228 221 217 212 225 235 247 256 252 249 246 241 240 233 233 239 243 240 245 252 250 245 259 276 287 290 254 256 290 295 298
252 248 254 263 257 241 245 255 244 224 237 228 233 231 234 223 221 229 247 248 243 241 240 238 236 234 244 244 247 230 223 234 236 242 246 260 259 268 260 241 261 286 289
258 257 264 254 244 233 231 229 228 224 233 230 232 234 244 256 255 258 264 259 252 245 244 245 242 242 242 250 252 247 234 227 229 238 248 246 252 256 269 262 252 272 278
263 266 266 254 243 242 242 225 229 230 229 235 238 236 242 254 259 263 267 271 258 247 238 243 259 252 251 239 258 261 259 250 241 236 238 245 249 247 246 254 252 255 261
272 273 274 275 265 260 249 235 239 243 232 239 247 243 250 264 266 269 271 270 262 253 240 233 237 245 250 244 247 257 264 258 251 243 233 242 246 237 232 245 247 263 277
271 269 275 274 267 257 250 247 260 255 252 252 252 243 243 259 263 265 269 264 264 269 259 244 238 234 243 250 244 244 259 266 267 253 253 256 261 263 258 249 254 264 275
276 280 281 275 260 250 251 261 264 259 258 262 267 254 245 252 260 263 262 240 247 259 262 255 250 247 247 249 237 228 247 253 252 257 256 262 260 257 260 240 237 252 268
299 300 293 280 266 256 254 261 250 262 257 255 262 266 250 249 258 261 264 249 239 248 253 248 249 252 256 258 257 242 247 255 244 242 246 245 242 235 240 241 232 235 246
305 296 289 286 277 271 250 259 250 237 239 246 252 267 267 260 266 260 265 264 256 245 250 248 247 256 264 266 267 257 256 261 239 241 248 245 239 239 235 236 240 242 243
306 293 288 286 283 274 257 251 245 228 232 247 247 257 268 269 263 274 277 273 267 258 248 249 254 262 272 273 266 265 265 248 232 243 250 253 245 230 223 241 253 254 262
285 286 282 274 269 262 266 260 249 236 240 248 254 258 270 278 273 272 268 279 276 274 266 254 261 267 276 272 267 273 259 240 238 242 248 257 249 239 242 245 254 255 261
286 285 281 280 270 265 274 263 265 245 248 252 245 245 244 249 260 274 277 262 237 239 247 235 222 231 243 244 259 269 258 256 262 253 248 252 257 256 253 247 254 252 250
286 290 284 281 274 262 259 302 305 295 293 289 283 277 275 270 272 278 287 291 284 265 260 232 225 224 233 242 249 258 258 254 253 253 253 253 254 257 259 253 250 249 257
272 283 281 279 273 271 274 274 297 318 312 304 296 291 289 284 283 286 291 294 286 278 259 233 230 231 231 233 245 256 264 264 257 253 256 256 255 256 257 252 248 250 256
287 288 291 280 274 272 270 269 271 279 292 301 302 298 299 297 296 296 301 310 294 297 244 233 236 237 235 240 246 252 259 266 271 267 265 263 259 255 253 252 249 247 254
295 285 283 280 279 280 281 278 274 275 278 289 300 301 302 303 305 305 311 287 247 259 263 254 245 242 243 247 254 257 257 258 260 266 271 271 268 263 261 258 255 257 256
295 299 304 294 290 287 286 283 281 279 281 284 285 288 292 293 288 297 302 276 262 262 263 265 264 253 245 244 248 252 259 260 258 263 266 267 267 267 264 262 258 256 256
292 299 309 308 300 293 286 279 277 277 280 284 284 286 293 292 282 277 272 273 271 270 266 263 261 264 268 259 252 250 252 255 256 258 260 265 267 267 266 264 263 260 260
289 293 293 290 292 288 288 289 289 287 287 290 296 299 301 303 291 282 275 274 275 273 260 255 254 249 247 257 256 253 250 249 253 257 260 263 265 265 264 263 264 264 261
287 293 298 302 302 297 303 298 291 286 286 287 291 295 297 293 287 282 279 278 273 267 274 266 260 263 261 256 254 247 245 248 253 249 254 262 264 262 261 262 262 264 261
288 290 295 299 300 291 290 291 290 288 286 285 287 288 287 285 286 285 282 277 271 269 265 259 260 261 264 266 266 262 257 257 255 246 239 248 255 261 260 262 262 261 259
303 298 299 298 302 303 300 295 291 289 288 289 287 286 285 283 283 283 278 271 267 264 267 265 261 260 262 266 267 266 268 269 268 257 244 241 249 253 259 259 262 264 260
317 312 306 302 297 297 295 294 294 295 292 291 288 283 281 280 281 280 278 273 271 270 271 270 265 266 267 268 268 270 271 270 269 268 259 247 246 251 254 256 256 258 258
Height
1482 1483 1483 1484 1484 1485 1485 1486 1487 1488 1488 1489 1489 1490 1490 1491 1492 1493 1494 1495 1495 1496 1497 1498 1499 1501 1501 1502 1503 1504 1506 1507 1506 1506 1507 1507 1508 1509 1509 1509 1510 1510 1511
1479 1479 1480 1481 1481 1482 1482 1482 1483 1484 1485 1485 1486 1486 1487 1487 1488 1489 1490 1491 1492 1492 1493 1494 1496 1497 1497 1498 1499 1500 1501 1502 1503 1502 1502 1503 1503 1504 1504 1505 1505 1506 1506
1476 1476 1477 1477 1478 1478 1478 1479 1480 1480 1481 1481 1482 1483 1483 1484 1484 1485 1486 1487 1488 1489 1490 1491 1492 1492 1493 1494 1495 1495 1496 1497 1498 1498 1498 1498 1498 1499 1499 1500 1500 1501 1501
1473 1473 1473 1473 1474 1474 1475 1475 1476 1476 1477 1478 1478 1479 1479 1480 1481 1481 1482 1483 1484 1485 1486 1487 1488 1488 1489 1490 1490 1491 1492 1492 1493 1493 1493 1493 1494 1494 1494 1494 1495 1496 1496
1469 1469 1470 1470 1470 1471 1471 1471 1472 1472 1473 1474 1474 1475 1476 1476 1477 1477 1478 1479 1480 1480 1481 1483 1483 1484 1485 1486 1486 1486 1487 1488 1488 1488 1488 1489 1489 1489 1489 1490 1490 1491 1491
1466 1466 1466 1467 1467 1467 1467 1467 1467 1468 1469 1469 1470 1470 1471 1471 1473 1473 1474 1475 1475 1476 1477 1478 1478 1479 1480 1481 1482 1482 1483 1483 1483 1483 1483 1483 1484 1485 1485 1486 1486 1486 1486
1462 1462 1462 1462 1463 1463 1463 1463 1463 1464 1464 1465 1465 1466 1466 1467 1468 1469 1470 1470 1471 1471 1472 1473 1473 1474 1475 1476 1476 1477 1477 1478 1479 1479 1479 1479 1480 1480 1481 1481 1481 1481 1481
1458 1458 1458 1458 1458 1458 1459 1459 1460 1460 1461 1461 1461 1461 1462 1463 1463 1464 1465 1465 1466 1466 1467 1468 1469 1469 1470 1471 1471 1472 1472 1472 1473 1474 1475 1475 1475 1476 1476 1477 1477 1476 1476
1455 1454 1454 1454 1454 1454 1455 1455 1456 1456 1456 1456 1456 1457 1457 1458 1459 1460 1461 1460 1461 1462 1462 1463 1464 1464 1465 1466 1466 1466 1467 1467 1468 1469 1469 1470 1470 1471 1472 1472 1472 1472 1471
1451 1450 1450 1450 1450 1450 1451 1451 1452 1452 1452 1452 1452 1453 1453 1454 1454 1455 1456 1456 1456 1456 1457 1458 1459 1460 1460 1461 1461 1461 1461 1462 1463 1463 1464 1464 1465 1465 1466 1467 1467 1467 1466
1447 1447 1446 1446 1446 1447 1447 1447 1448 1448 1448 1448 1448 1449 1449 1450 1450 1451 1451 1451 1451 1451 1452 1453 1454 1455 1456 1456 1457 1457 1457 1457 1457 1457 1457 1458 1459 1459 1460 1461 1461 1462 1461
1444 1444 1443 1443 1443 1443 1443 1443 1444 1444 1444 1444 1444 1444 1445 1445 1446 1446 1447 1447 1447 1447 1447 1448 1449 1450 1450 1451 1451 1452 1452 1453 1452 1452 1452 1452 1453 1454 1454 1455 1456 1456 1456
1441 1440 1440 1440 1439 1439 1440 1440 1440 1440 1440 1440 1440 1440 1440 1441 1441 1442 1442 1443 1443 1443 1443 1444 1445 1445 1445 1445 1446 1447 1447 1447 1447 1447 1447 1447 1448 1449 1449 1450 1450 1450 1450
1438 1437 1437 1436 1436 1436 1436 1436 1436 1437 1437 1437 1437 1437 1437 1437 1437 1438 1438 1438 1438 1438 1439 1440 1440 1441 1441 1441 1441 1441 1442 1442 1442 1442 1442 1443 1443 1444 1444 1444 1444 1444 1444
1435 1434 1434 1434 1433 1433 1433 1433 1433 1434 1434 1434 1434 1434 1433 1433 1433 1434 1434 1434 1434 1434 1435 1435 1435 1436 1435 1435 1436 1436 1437 1437 1438 1438 1438 1438 1439 1439 1439 1439 1439 1439 1439
1432 1431 1431 1430 1430 1430 1430 1430 1430 1431 1431 1431 1430 1430 1430 1430 1430 1430 1431 1431 1431 1431 1431 1431 1431 1431 1431 1431 1431 1432 1432 1432 1433 1433 1434 1434 1434 1434 1434 1434 1434 1434 1434
1429 1429 1428 1428 1427 1427 1426 1426 1426 1426 1427 1427 1427 1426 1426 1427 1426 1426 1427 1427 1427 1427 1427 1426 1426 1427 1427 1427 1428 1428 1428 1428 1429 1429 1429 1429 1429 1429 1429 1430 1430 1430 1429
1427 1426 1426 1425 1425 1424 1424 1423 1423 1422 1422 1422 1423 1423 1422 1422 1423 1422 1422 1422 1422 1422 1422 1422 1422 1423 1423 1424 1424 1424 1424 1424 1425 1425 1425 1425 1425 1425 1425 1425 1425 1424 1424
1424 1423 1423 1422 1422 1421 1421 1421 1421 1420 1419 1419 1419 1419 1419 1419 1419 1419 1419 1418 1418 1418 1418 1419 1419 1419 1419 1420 1420 1420 1420 1420 1420 1420 1420 1420 1420 1420 1420 1420 1420 1420 1420
1421 1420 1420 1419 1419 1419 1418 1418 1418 1417 1416 1416 1415 1415 1415 1415 1415 1415 1415 1414 1414 1414 1414 1415 1415 1415 1415 1415 1416 1416 1416 1416 1416 1416 1416 1416 1415 1415 1415 1415 1415 1415 1414
1418 1417 1417 1417 1416 1416 1415 1415 1415 1414 1413 1413 1412 1412 1412 1412 1411 1411 1411 1411 1411 1410 1411 1411 1411 1411 1411 1411 1411 1411 1411 1411 1411 1411 1411 1411 1411 1411 1411 1410 1410 1410 1410
1415 1414 1414 1414 1414 1413 1413 1413 1412 1411 1411 1410 1409 1409 1409 1408 1408 1407 1407 1407 1407 1407 1407 1407 1407 1407 1407 1407 1407 1407 1407 1407 1407 1407 1407 1407 1406 1406 1406 1406 1405 1405 1405
1412 1412 1412 1411 1411 1410 1410 1410 1409 1408 1407 1407 1406 1405 1405 1405 1404 1404 1403 1403 1403 1403 1403 1403 1403 1403 1403 1403 1402 1402 1402 1402 1402 1402 1402 1402 1402 1401 1401 1401 1400 1400 1400
1410 1409 1409 1408 1408 1407 1407 1406 1406 1405 1404 1403 1403 1402 1402 1401 1400 1400 1399 1399 1399 1398 1399 1398 1398 1398 1398 1398 1397 1397 1397 1397 1397 1397 1397 1397 1396 1396 1396 1396 1395 1395 1395
1408 1407 1406 1406 1405 1405 1404 1403 1403 1402 1401 1400 1399 1399 1398 1397 1397 1396 1395 1395 1394 1394 1394 1394 1393 1393 1393 1392 1392 1392 1392 1392 1392 1392 1392 1392 1391 1391 1391 1391 1390 1390 1390
1405 1405 1404 1403 1403 1402 1401 1400 1399 1398 1397 1396 1396 1395 1394 1393 1393 1392 1391 1391 1390 1389 1389 1389 1388 1388 1387 1387 1387 1386 1386 1386 1387 1387 1387 1387 1386 1386 1386 1386 1385 1385 1385